Tupelo, MS

10:18 PM CDT on March 26, 2017 (GMT -0500)
Tupelo Regional

Weather History for KTUP - May, 2013

Change the Weather History Date:

Friday, May 31, 2013

  Actual Average Record
Temperature  
Mean Temperature 79 °F 75 °F  
Max Temperature 87 °F 86 °F 100 °F (1937)
Min Temperature 71 °F 64 °F 45 °F (1966)
Degree Days  
Heating Degree Days 0 0  
Month to date heating degree days 58 23  
Since 1 July heating degree days 2960 2956  
Cooling Degree Days 14 10  
Month to date cooling degree days 183 201  
Year to date cooling degree days 246 277  
Growing Degree Days 29 (Base 50)    
Moisture  
Dew Point 70 °F    
Average Humidity 73    
Maximum Humidity 87    
Minimum Humidity 59    
Precipitation  
Precipitation T in 0.16 in 2.11 in (2015)
Month to date precipitation 6.49 5.56  
Year to date precipitation 28.43 24.60  
Snow  
Snow 0.00 in 0.00 in - ()
Month to date snowfall 0.0 0.0  
Since 1 July snowfall T 2.1  
Snow Depth 0.00 in    
Sea Level Pressure  
Sea Level Pressure 29.98 in    
Wind  
Wind Speed 9 mph (South)    
Max Wind Speed 20 mph    
Max Gust Speed 25 mph    
Visibility 10 miles    
Events Rain    
T = Trace of Precipitation, MM = Missing Value Source: NWS Daily Summary

Daily Weather History Graph

Daily Weather History Graph

Search for Another Location

Airport or City:

Trip Planner

Search our weather history database for the weather conditions in past years. The results will help you decide how hot, cold, wet, or windy it might be!

Date:

Astronomy

May. 31, 2013 Rise Set
Actual Time 5:44 AM CDT 8:01 PM CDT
Civil Twilight 5:15 AM CDT 8:30 PM CDT
Nautical Twilight 4:40 AM CDT 9:05 PM CDT
Astronomical Twilight 4:02 AM CDT 9:44 PM CDT
Moon 12:48 AM CDT (5/31) 12:45 PM CDT (5/31)
Length of Visible Light 15h 14m
Length of Day
14h 17m
Waning Gibbous, 51% of the Moon is Illuminated
May 31
Waning Gibbous
May 31
Last Quarter
Jun 8
New
Jun 16
First Quarter
Jun 23
Full

Hourly Weather History & Observations

Time (CDT) Temp. Heat Index Dew Point Humidity Pressure Visibility Wind Dir Wind Speed Gust Speed Precip Events Conditions
12:53 AM 73.9 °F - 69.1 °F 85% 29.99 in 10.0 mi South 6.9 mph - 0.00 in Rain Rain
1:53 AM 73.9 °F - 68.0 °F 82% 29.98 in 10.0 mi South 6.9 mph - 0.00 in Rain Rain
2:53 AM 73.0 °F - 68.0 °F 84% 29.99 in 10.0 mi SSW 3.5 mph - 0.00 in Rain Rain
3:53 AM 73.0 °F - 66.9 °F 81% 29.98 in 10.0 mi SSW 6.9 mph - 0.00 in Rain Rain
4:53 AM 71.1 °F - 66.9 °F 87% 30.01 in 10.0 mi SW 3.5 mph - 0.00 in Rain Rain
5:53 AM 71.1 °F - 66.9 °F 87% 30.03 in 10.0 mi SSW 4.6 mph - 0.00 in   Clear
6:53 AM 72.0 °F - 66.9 °F 84% 30.04 in 10.0 mi South 5.8 mph - N/A   Clear
7:53 AM 73.9 °F - 68.0 °F 82% 30.03 in 10.0 mi South 10.4 mph - N/A   Clear
8:48 AM 77.0 °F - 69.8 °F 78% 30.04 in 10.0 mi South 15.0 mph 19.6 mph N/A   Overcast
8:53 AM 77.0 °F - 69.1 °F 76% 30.02 in 10.0 mi South 13.8 mph 19.6 mph N/A   Overcast
9:53 AM 78.1 °F - 69.1 °F 74% 30.02 in 10.0 mi SSW 11.5 mph - N/A   Overcast
10:53 AM 79.0 °F - 70.0 °F 74% 30.02 in 10.0 mi SSW 10.4 mph - N/A   Overcast
11:53 AM 79.0 °F - 70.0 °F 74% 30.01 in 10.0 mi South 9.2 mph - N/A   Overcast
12:53 PM 81.0 °F 85.2 °F 72.0 °F 74% 30.00 in 10.0 mi South 9.2 mph - N/A   Overcast
1:53 PM 82.9 °F 87.5 °F 71.1 °F 67% 29.99 in 10.0 mi South 12.7 mph - N/A   Mostly Cloudy
2:53 PM 82.9 °F 87.5 °F 71.1 °F 67% 29.97 in 10.0 mi South 12.7 mph 18.4 mph N/A   Mostly Cloudy
3:53 PM 87.1 °F 92.8 °F 71.1 °F 59% 29.95 in 10.0 mi South 11.5 mph 21.9 mph N/A   Scattered Clouds
4:53 PM 87.1 °F 92.8 °F 71.1 °F 59% 29.94 in 10.0 mi South 12.7 mph 18.4 mph N/A   Scattered Clouds
5:53 PM 84.9 °F 90.1 °F 71.1 °F 63% 29.93 in 10.0 mi South 8.1 mph - N/A   Scattered Clouds
6:53 PM 84.0 °F 89.0 °F 71.1 °F 65% 29.93 in 10.0 mi South 8.1 mph - N/A   Partly Cloudy
7:53 PM 82.0 °F 86.3 °F 71.1 °F 69% 29.92 in 10.0 mi South 8.1 mph - N/A   Clear
8:53 PM 81.0 °F 84.4 °F 70.0 °F 69% 29.93 in 10.0 mi South 15.0 mph 24.2 mph N/A   Mostly Cloudy
9:53 PM 80.1 °F 83.2 °F 70.0 °F 71% 29.93 in 10.0 mi South 15.0 mph 25.3 mph N/A   Mostly Cloudy
10:53 PM 78.1 °F - 70.0 °F 76% 29.96 in 10.0 mi SSW 8.1 mph - N/A   Scattered Clouds
11:53 PM 78.1 °F - 71.1 °F 79% 29.98 in 10.0 mi SSW 9.2 mph - N/A   Overcast